[[{"header":{"parameterUnit":"m.s-1","parameterCategory":2,"la1":30.2991,"la2":30.254,"lo1":-89.0895,"lo2":-89.0444,"dy":0.0017,"dx":0.0017,"nx":28,"ny":28,"refTime":"2025-11-19T03:00:00:Z","depth":"0","parameterNumber":2,"parameterNumberName":"U-component_of_CURRENTS"},"data":[0,0,0,0,0,0,0,0,0,0,0,0,0,0,0,0,0,0,0,0,0,0,0,0,0,0,0,0,0,0,0,0,0,0,0,0,0,0,0,0,0,0,0,0,0,0,0,0,0,0,0,0,0,0,0,0,0,0,-0.3398,-0.3399,0,-0.3459,-0.346,-0.346,-0.3416,-0.3414,-0.3413,-0.3412,-0.3349,-0.3349,-0.3348,0,0,0,0,0,0,0,0,0,0,0,0,0,-0.3115,-0.3121,-0.3397,-0.3399,-0.34,-0.3459,-0.346,-0.346,-0.3416,-0.3414,-0.3413,-0.3411,-0.3349,-0.3349,-0.3348,0,0,0,0,0,0,0,0,0,0,0,0,0,-0.3209,-0.3123,-0.3397,-0.339,-0.339,-0.3459,-0.346,-0.346,-0.3417,-0.3414,-0.3412,-0.341,-0.3349,-0.3349,-0.3348,-0.3389,0,0,-0.3347,-0.3347,0,0,0,0,0,0,0,0,-0.3204,-0.3218,-0.3389,-0.339,-0.3391,-0.3433,-0.3337,-0.3432,-0.3417,-0.3401,-0.3412,-0.3409,-0.3371,-0.3369,-0.3379,-0.3386,-0.3383,-0.3347,-0.3347,-0.3346,-0.3346,0,0,0,0,0,0,0,-0.3197,-0.3215,-0.3416,-0.3391,-0.3392,-0.334,-0.3351,-0.3355,-0.339,-0.3402,-0.34,-0.3417,-0.3369,-0.3379,-0.3377,-0.3382,-0.3347,-0.3346,-0.3346,-0.3346,-0.3298,-0.3297,0,0,0,0,0,0,-0.3212,-0.3211,-0.3414,-0.3419,-0.3296,-0.3348,-0.336,-0.3417,-0.3393,-0.339,-0.3419,-0.3415,-0.3381,-0.3377,-0.3374,-0.3308,-0.3346,-0.3346,-0.3346,-0.3299,-0.3298,-0.3297,0,0,0,0,0,0,-0.3206,-0.3231,-0.3412,-0.3316,-0.3337,-0.3357,-0.3419,-0.3419,-0.3419,-0.3408,-0.3401,-0.3417,-0.3379,-0.3375,-0.3359,-0.3309,-0.3346,-0.3345,-0.33,-0.3299,-0.3298,-0.3246,0,0,0,0,0,0,-0.3198,-0.3229,-0.326,-0.332,-0.3343,-0.3425,-0.3422,-0.3422,-0.3436,-0.343,-0.3405,-0.3398,-0.3377,-0.336,-0.3359,-0.3309,-0.3345,-0.3302,-0.33,-0.3298,-0.3249,-0.3243,-0.3238,0,0,0,0,0,-0.3189,-0.323,-0.3263,-0.3286,-0.3392,-0.3425,-0.343,-0.3431,-0.3438,-0.3425,-0.3417,-0.3398,-0.3346,-0.336,-0.3358,-0.3307,-0.3303,-0.33,-0.3298,-0.3252,-0.3244,-0.3238,0,0,0,0,0,0,-0.3103,-0.3233,-0.3268,-0.3344,-0.3375,-0.3419,-0.3416,-0.3437,-0.3428,-0.3424,-0.3407,-0.3399,-0.3353,-0.3356,-0.3372,-0.3288,-0.3313,-0.331,-0.3278,-0.3271,-0.3266,-0.3188,-0.3344,0,0,0,0,0,-0.3114,-0.318,-0.3273,-0.3317,-0.3347,-0.3389,-0.3402,-0.3417,-0.3429,-0.3423,-0.3405,-0.3383,-0.335,-0.3333,-0.3307,-0.3288,-0.3258,-0.3248,-0.3242,-0.3238,-0.3173,-0.3121,-0.3103,-0.329,-0.329,-0.329,0,0,-0.3077,-0.3166,-0.3193,-0.3303,-0.3332,-0.3328,-0.3387,-0.3414,-0.3381,-0.3419,-0.3358,-0.3367,-0.3342,-0.3294,-0.3273,-0.3287,-0.3177,-0.3235,-0.3231,-0.3167,-0.3116,-0.3098,-0.3081,-0.3288,-0.3289,-0.3289,0,0,-0.3002,-0.3136,-0.314,-0.3179,-0.325,-0.3291,-0.33,-0.3352,-0.3347,-0.334,-0.3327,-0.3303,-0.3288,-0.323,-0.3207,-0.3163,-0.3149,-0.3171,-0.3077,-0.3029,-0.3012,-0.2997,-0.2966,-0.2948,-0.3169,-0.3169,-0.3169,0,-0.2936,-0.2998,-0.313,-0.313,-0.3145,-0.3265,-0.3232,-0.3252,-0.3276,-0.3259,-0.3303,-0.3234,-0.3233,-0.3125,-0.3106,-0.314,-0.3126,-0.3108,-0.3019,-0.3003,-0.2988,-0.2959,-0.294,-0.3166,-0.3167,-0.3167,-0.3167,0,-0.285,-0.2896,-0.2902,-0.2955,-0.2981,-0.2995,-0.3059,-0.307,-0.3119,-0.3128,-0.3073,-0.3088,-0.3038,-0.3043,-0.3062,-0.2945,-0.2977,-0.302,-0.3031,-0.2965,-0.2941,-0.2922,-0.3162,-0.3163,-0.3164,-0.3165,0,0,-0.2715,-0.2817,-0.2816,-0.2829,-0.2909,-0.2932,-0.2896,-0.2905,-0.2892,-0.2907,-0.2853,-0.2805,-0.2846,-0.2819,-0.2845,-0.28,-0.2721,-0.2864,-0.2863,-0.2821,-0.2623,-0.2531,-0.2503,-0.2763,-0.2759,-0.2755,-0.266,0,-0.2595,-0.2582,-0.2653,-0.2616,-0.2631,-0.2724,-0.2692,-0.2714,-0.276,-0.2749,-0.2748,-0.2723,-0.2753,-0.2767,-0.271,-0.2739,-0.2662,-0.2742,-0.2698,-0.2695,-0.2612,-0.2472,-0.2386,-0.2281,-0.2641,-0.2638,-0.2636,0,-0.2488,-0.2515,-0.2463,-0.2524,-0.2533,-0.2512,-0.2545,-0.2532,-0.2544,-0.2578,-0.2541,-0.2583,-0.2508,-0.2582,-0.2487,-0.2549,-0.254,-0.2552,-0.255,-0.2446,-0.2563,-0.2398,-0.2233,-0.2233,-0.2606,-0.2609,-0.2611,0,-0.2385,-0.2393,-0.2366,-0.2378,-0.2437,-0.2417,-0.2443,-0.2466,-0.2474,-0.2471,-0.2497,-0.2425,-0.2439,-0.2382,-0.2411,-0.2456,-0.2329,-0.2413,-0.2287,-0.2285,-0.218,-0.2172,-0.1981,-0.227,-0.2271,-0.2271,-0.2271,0,-0.2284,-0.2266,-0.2326,-0.232,-0.2295,-0.2354,-0.2331,-0.2353,-0.2379,-0.2375,-0.2405,-0.2388,-0.2394,-0.2358,-0.235,-0.2242,-0.2271,-0.219,-0.2213,-0.2165,-0.2158,-0.2131,-0.2185,-0.2267,-0.2268,-0.2269,-0.2269,0,-0.2185,-0.222,-0.2208,-0.2247,-0.2255,-0.2244,-0.2289,-0.2284,-0.2326,-0.2323,-0.2324,-0.2352,-0.2289,-0.2268,-0.221,-0.217,-0.2043,-0.2038,-0.1982,-0.1995,-0.1855,-0.1911,-0.1708,-0.1656,-0.1856,-0.1852,-0.1849,0,-0.2132,-0.2116,-0.215,-0.2144,-0.2158,-0.2165,-0.2172,-0.2236,-0.2244,-0.2291,-0.2278,-0.2242,-0.2177,-0.2044,-0.1953,-0.1835,-0.1888,-0.1709,-0.1729,-0.1741,-0.1824,-0.1888,-0.1866,-0.1608,-0.1603,-0.1599,-0.1596,0,-0.2022,-0.204,-0.2036,-0.2036,-0.2039,-0.2051,-0.2072,-0.2083,-0.2155,-0.2159,-0.2136,-0.2086,-0.1958,-0.179,-0.1655,-0.159,-0.1665,-0.1622,-0.164,-0.1556,-0.1604,-0.1604,-0.1819,-0.1562,-0.1566,-0.1568,-0.157,-0.1571,-0.1928,-0.1908,-0.191,-0.1899,-0.1911,-0.1915,-0.1882,-0.1921,-0.1916,-0.1862,-0.1945,-0.1789,-0.1716,-0.1483,-0.1409,-0.1277,-0.1365,-0.1264,-0.132,-0.1374,-0.1313,-0.1429,-0.12,-0.1202,-0.1203,-0.1204,-0.1205,0,-0.1798,-0.1785,-0.1772,-0.1756,-0.1723,-0.1779,-0.1787,-0.1717,-0.1658,-0.1581,-0.1521,-0.1408,-0.1285,-0.1209,-0.1107,-0.1031,-0.1034,-0.1026,-0.1114,-0.1096,-0.1183,-0.1161,-0.0905,-0.0905,-0.0905,-0.0905,-0.0905,-0.0905,-0.1721,-0.1658,-0.1659,-0.1561,-0.1555,-0.1482,-0.146,-0.1357,-0.1256,-0.1037,-0.0901,-0.0822,-0.0946,-0.1111,-0.104,-0.0973,-0.0987,-0.0936,-0.0981,-0.1094,-0.1123,-0.1151,-0.1137,-0.0881,-0.0881,-0.0849,-0.0849,-0.0849]},{"header":{"parameterUnit":"m.s-1","parameterCategory":2,"la1":30.2991,"la2":30.254,"lo1":-89.0895,"lo2":-89.0444,"dy":0.0017,"dx":0.0017,"nx":28,"ny":28,"refTime":"2025-11-19T03:00:00:Z","depth":"0","parameterNumber":3,"parameterNumberName":"V-component_of_CURRENTS"},"data":[0,0,0,0,0,0,0,0,0,0,0,0,0,0,0,0,0,0,0,0,0,0,0,0,0,0,0,0,0,0,0,0,0,0,0,0,0,0,0,0,0,0,0,0,0,0,0,0,0,0,0,0,0,0,0,0,0,0,-0.0068,-0.0066,0,0.0144,0.0146,0.0148,0.0274,0.0274,0.0275,0.0275,0.0623,0.0632,0.064,0,0,0,0,0,0,0,0,0,0,0,0,0,-0.0311,-0.0307,-0.0069,-0.0066,-0.0063,0.0143,0.0146,0.0149,0.0274,0.0274,0.0275,0.0275,0.062,0.0631,0.0641,0,0,0,0,0,0,0,0,0,0,0,0,0,-0.0163,-0.0306,-0.0069,0.0023,0.0034,0.0143,0.0146,0.015,0.0273,0.0274,0.0275,0.0276,0.0617,0.063,0.0643,0.0709,0,0,0.0683,0.0689,0,0,0,0,0,0,0,0,-0.0171,-0.0154,0.0007,0.0017,0.0029,0.0183,0.0189,0.0343,0.0273,0.0183,0.0275,0.0276,0.0488,0.0512,0.0548,0.0725,0.074,0.0684,0.0692,0.0698,0.0702,0,0,0,0,0,0,0,-0.0182,-0.0162,0.0016,0.001,0.0023,0.0073,0.0095,0.0218,0.0331,0.0191,0.02,0.0223,0.0495,0.0535,0.0558,0.0745,0.0684,0.0695,0.0704,0.0709,0.0944,0.0942,0,0,0,0,0,0,-0.0212,-0.0172,0.0009,0.0022,-0.0072,0.0077,0.0101,0.0133,0.0327,0.0356,0.0222,0.0228,0.0512,0.0542,0.0571,0.0598,0.0698,0.071,0.0718,0.0945,0.0943,0.0942,0,0,0,0,0,0,-0.0218,-0.0197,0.0,-0.0071,-0.0042,0.008,0.0115,0.0137,0.0174,0.035,0.0382,0.0237,0.0514,0.0552,0.0648,0.0615,0.0716,0.0728,0.0947,0.0945,0.0943,0.0693,0,0,0,0,0,0,-0.0225,-0.0201,-0.0197,-0.0073,-0.0039,0.0042,0.0115,0.014,0.0187,0.0197,0.0373,0.0406,0.0517,0.0627,0.0661,0.0635,0.0738,0.095,0.0946,0.0943,0.0703,0.0682,0.0664,0,0,0,0,0,-0.0235,-0.0231,-0.0197,-0.0176,-0.0035,0.0041,0.0062,0.0152,0.0187,0.019,0.0296,0.0401,0.0631,0.0636,0.0677,0.0653,0.0951,0.0947,0.0944,0.0712,0.0686,0.0665,0,0,0,0,0,0,-0.0331,-0.0214,-0.0175,-0.0135,-0.0066,0.0062,0.0078,0.0137,0.0223,0.0237,0.0392,0.0431,0.0499,0.0612,0.0613,0.071,0.0805,0.0809,0.0615,0.0593,0.0574,0.0564,0.0749,0,0,0,0,0,-0.0353,-0.0324,-0.021,-0.0186,-0.0153,-0.0044,-0.0004,0.0057,0.0154,0.0192,0.0304,0.0423,0.0516,0.0579,0.0685,0.0751,0.0838,0.0759,0.0739,0.0722,0.074,0.0788,0.0773,0.0929,0.0929,0.0929,0,0,-0.0387,-0.032,-0.0303,-0.0207,-0.0142,-0.0114,-0.0018,0.0033,0.005,0.022,0.0266,0.0365,0.0517,0.0572,0.0614,0.0664,0.072,0.0717,0.0701,0.073,0.0782,0.0767,0.0753,0.0927,0.0927,0.0928,0,0,-0.0446,-0.0379,-0.0377,-0.0329,-0.0243,-0.0174,-0.017,-0.0059,-0.0017,0.0047,0.015,0.022,0.0384,0.0461,0.053,0.0474,0.0609,0.0505,0.041,0.0452,0.044,0.043,0.0497,0.0496,0.0499,0.0498,0.0498,0,-0.0493,-0.0459,-0.0371,-0.0361,-0.0328,-0.0215,-0.0212,-0.0159,-0.0041,-0.0008,0.0033,0.0217,0.0331,0.0397,0.0367,0.043,0.0486,0.0478,0.0423,0.0416,0.041,0.0483,0.0484,0.0486,0.0487,0.0489,0.049,0,-0.0545,-0.0524,-0.0522,-0.0471,-0.0436,-0.041,-0.0326,-0.0296,-0.023,-0.0162,-0.0091,0.0039,0.0158,0.0177,0.0266,0.0273,0.0335,0.0381,0.0472,0.0378,0.0462,0.0467,0.0468,0.0472,0.0476,0.0479,0,0,-0.0611,-0.0566,-0.0563,-0.0555,-0.0483,-0.0451,-0.0446,-0.0381,-0.0356,-0.0281,-0.0242,-0.0133,-0.0058,0.0023,0.0117,0.015,0.0137,0.0234,0.0242,0.0283,0.0243,0.0304,0.0318,0.0157,0.0157,0.0157,0.0309,0,-0.0667,-0.0683,-0.0639,-0.0653,-0.0644,-0.0564,-0.0561,-0.0501,-0.0425,-0.0369,-0.0265,-0.0185,-0.012,-0.0065,-0.0035,0.0122,0.0145,0.0095,0.0348,0.0357,0.0406,0.0324,0.0359,0.0499,0.0315,0.0317,0.0317,0,-0.0711,-0.0712,-0.0741,-0.0715,-0.0703,-0.0706,-0.0649,-0.0627,-0.0538,-0.0477,-0.0407,-0.0302,-0.0221,-0.0163,0.0008,-0.003,0.0083,0.0181,0.019,0.0349,0.0429,0.0572,0.0518,0.0643,0.0328,0.0327,0.0326,0,-0.0769,-0.0768,-0.0793,-0.0786,-0.0754,-0.0756,-0.0733,-0.0662,-0.0629,-0.0541,-0.0492,-0.0388,-0.0293,-0.0181,0.0033,0.0016,0.0231,0.0242,0.0396,0.0403,0.0543,0.0563,0.0633,0.0331,0.0331,0.033,0.033,0,-0.0817,-0.083,-0.0824,-0.0835,-0.0858,-0.0814,-0.081,-0.0769,-0.0699,-0.0647,-0.0551,-0.0468,-0.0296,-0.014,0.0009,0.0239,0.0216,0.0381,0.0438,0.0456,0.0465,0.0675,0.0721,0.0336,0.0335,0.0334,0.0333,0,-0.0864,-0.0861,-0.0886,-0.0883,-0.0884,-0.0898,-0.0869,-0.0854,-0.0783,-0.071,-0.0686,-0.0513,-0.0303,-0.0114,0.0128,0.0245,0.0532,0.0521,0.0544,0.0599,0.0822,0.0853,0.1039,0.1135,0.0692,0.0694,0.0696,0,-0.0887,-0.0908,-0.0932,-0.0952,-0.0954,-0.0964,-0.0965,-0.0907,-0.0874,-0.0716,-0.0677,-0.0469,-0.0277,0.0093,0.0318,0.0578,0.0669,0.0754,0.0714,0.0838,0.0916,0.0932,0.1,0.0804,0.0806,0.0808,0.081,0,-0.0927,-0.0938,-0.0962,-0.1013,-0.1031,-0.1043,-0.1031,-0.1011,-0.091,-0.079,-0.059,-0.0424,-0.0088,0.0238,0.0549,0.0696,0.0845,0.0805,0.0927,0.1,0.1035,0.1153,0.0717,0.0829,0.0827,0.0826,0.0825,0.0824,-0.0949,-0.0984,-0.1019,-0.1062,-0.109,-0.1094,-0.1053,-0.0968,-0.085,-0.0562,-0.047,-0.0067,0.0181,0.0631,0.0782,0.1077,0.1031,0.1165,0.1194,0.1201,0.1279,0.0889,0.1063,0.1062,0.1062,0.1061,0.1061,0,-0.0967,-0.1008,-0.106,-0.1104,-0.1133,-0.1133,-0.1066,-0.093,-0.07,-0.0381,-0.0082,0.0425,0.0738,0.0986,0.129,0.1453,0.1481,0.1535,0.1561,0.1613,0.1275,0.1264,0.1497,0.1497,0.1497,0.1496,0.1496,0.1496,-0.0975,-0.1031,-0.1065,-0.112,-0.1145,-0.1082,-0.1009,-0.0726,-0.0438,0.0137,0.0599,0.0902,0.115,0.1476,0.1751,0.1783,0.1933,0.1916,0.2004,0.1752,0.1719,0.1688,0.1688,0.2006,0.2006,0.2342,0.2345,0.2347]}],[{"header":{"parameterUnit":"m.s-1","parameterCategory":2,"la1":30.2991,"la2":30.254,"lo1":-89.0895,"lo2":-89.0444,"dy":0.0017,"dx":0.0017,"nx":28,"ny":28,"refTime":"2025-11-19T03:00:00:Z","depth":"2","parameterNumber":2,"parameterNumberName":"U-component_of_CURRENTS"},"data":[0,0,0,0,0,0,0,0,0,0,0,0,0,0,0,0,0,0,0,0,0,0,0,0,0,0,0,0,0,0,0,0,0,0,0,0,0,0,0,0,0,0,0,0,0,0,0,0,0,0,0,0,0,0,0,0,0,0,-0.232,-0.232,0,-0.2363,-0.2363,-0.2364,-0.2366,-0.2366,-0.2365,-0.2365,-0.2459,-0.2462,-0.2465,0,0,0,0,0,0,0,0,0,0,0,0,0,-0.2281,-0.2281,-0.232,-0.232,-0.2321,-0.2362,-0.2363,-0.2364,-0.2366,-0.2366,-0.2365,-0.2365,-0.2458,-0.2462,-0.2465,0,0,0,0,0,0,0,0,0,0,0,0,0,-0.2308,-0.2281,-0.232,-0.2327,-0.2328,-0.2362,-0.2363,-0.2364,-0.2366,-0.2366,-0.2365,-0.2364,-0.2457,-0.2461,-0.2466,-0.2507,0,0,-0.2479,-0.2481,0,0,0,0,0,0,0,0,-0.2306,-0.2309,-0.2326,-0.2327,-0.2328,-0.2358,-0.2384,-0.2414,-0.2367,-0.2352,-0.2365,-0.2364,-0.2431,-0.2437,-0.2446,-0.2512,-0.2516,-0.248,-0.2482,-0.2484,-0.2485,0,0,0,0,0,0,0,-0.2304,-0.2308,-0.2336,-0.2326,-0.2328,-0.2342,-0.2345,-0.239,-0.2396,-0.2353,-0.2353,-0.2359,-0.2432,-0.2442,-0.2449,-0.2517,-0.2479,-0.2483,-0.2486,-0.2488,-0.2618,-0.2619,0,0,0,0,0,0,-0.2298,-0.2306,-0.2335,-0.2338,-0.2315,-0.2344,-0.2347,-0.2349,-0.2394,-0.24,-0.2359,-0.2359,-0.2435,-0.2443,-0.2452,-0.2484,-0.2484,-0.2488,-0.2491,-0.2617,-0.2618,-0.2619,0,0,0,0,0,0,-0.2297,-0.23,-0.2333,-0.2323,-0.2328,-0.2345,-0.2348,-0.2351,-0.2373,-0.2398,-0.2405,-0.2381,-0.2434,-0.2446,-0.2505,-0.2488,-0.249,-0.2494,-0.2616,-0.2617,-0.2618,-0.256,0,0,0,0,0,0,-0.2296,-0.2299,-0.2303,-0.2322,-0.2328,-0.2351,-0.2349,-0.2352,-0.2377,-0.2377,-0.2419,-0.2426,-0.2435,-0.2498,-0.2509,-0.2494,-0.2498,-0.2615,-0.2617,-0.2618,-0.2561,-0.2559,-0.2558,0,0,0,0,0,-0.2294,-0.2301,-0.2303,-0.2307,-0.2332,-0.2351,-0.2356,-0.2365,-0.2379,-0.2385,-0.2424,-0.2425,-0.2514,-0.2503,-0.2516,-0.2501,-0.2614,-0.2616,-0.2618,-0.2562,-0.256,-0.2558,0,0,0,0,0,0,-0.2289,-0.2303,-0.2305,-0.2317,-0.2332,-0.2352,-0.2362,-0.2379,-0.2416,-0.2421,-0.2452,-0.2462,-0.2494,-0.2526,-0.2513,-0.2546,-0.2559,-0.2563,-0.2512,-0.251,-0.2508,-0.2465,-0.2501,0,0,0,0,0,-0.2289,-0.2293,-0.2312,-0.2319,-0.2329,-0.2353,-0.2366,-0.2373,-0.2405,-0.242,-0.2451,-0.2487,-0.2511,-0.2535,-0.2559,-0.2601,-0.2587,-0.2598,-0.2596,-0.2594,-0.257,-0.2543,-0.2535,-0.2625,-0.2625,-0.2625,0,0,-0.2288,-0.2296,-0.2299,-0.2318,-0.2332,-0.2344,-0.2359,-0.2378,-0.2384,-0.2428,-0.2458,-0.2484,-0.2522,-0.2543,-0.2561,-0.257,-0.2565,-0.2597,-0.2594,-0.2571,-0.2544,-0.2535,-0.2526,-0.2626,-0.2626,-0.2626,0,0,-0.2282,-0.2297,-0.2297,-0.2312,-0.2332,-0.2346,-0.2357,-0.2385,-0.2392,-0.2434,-0.2449,-0.2463,-0.2536,-0.2525,-0.2539,-0.2554,-0.2551,-0.258,-0.2541,-0.2515,-0.2506,-0.2498,-0.2472,-0.2462,-0.2584,-0.2584,-0.2584,0,-0.2279,-0.228,-0.2302,-0.2309,-0.2317,-0.2349,-0.2353,-0.2371,-0.2413,-0.2417,-0.2436,-0.2484,-0.2508,-0.2508,-0.2503,-0.254,-0.2538,-0.254,-0.2507,-0.2499,-0.2492,-0.2467,-0.2456,-0.2582,-0.2582,-0.2582,-0.2583,0,-0.2269,-0.2277,-0.2282,-0.2295,-0.2311,-0.2319,-0.2344,-0.2363,-0.2386,-0.2396,-0.2406,-0.2431,-0.2452,-0.2461,-0.2489,-0.2454,-0.2473,-0.2498,-0.2499,-0.2478,-0.2455,-0.2445,-0.2578,-0.2579,-0.258,-0.258,0,0,-0.2225,-0.2264,-0.2262,-0.2268,-0.23,-0.231,-0.2327,-0.2336,-0.2344,-0.2364,-0.2361,-0.2371,-0.2377,-0.2392,-0.2415,-0.239,-0.2333,-0.2426,-0.2426,-0.2375,-0.2282,-0.2192,-0.2172,-0.2362,-0.236,-0.2358,-0.2286,0,-0.22,-0.2208,-0.2234,-0.2241,-0.2246,-0.2281,-0.2294,-0.2312,-0.2332,-0.2342,-0.2336,-0.2348,-0.2357,-0.2368,-0.2338,-0.235,-0.2305,-0.235,-0.2331,-0.233,-0.2231,-0.2156,-0.2017,-0.1932,-0.2276,-0.2275,-0.2273,0,-0.2161,-0.2175,-0.2176,-0.2209,-0.2214,-0.2226,-0.2244,-0.2262,-0.2282,-0.2298,-0.2293,-0.2312,-0.2281,-0.2297,-0.2245,-0.2285,-0.2262,-0.2255,-0.2253,-0.2173,-0.2219,-0.2011,-0.1901,-0.2257,-0.2258,-0.2259,-0.226,0,-0.2095,-0.2126,-0.2122,-0.2134,-0.2181,-0.2185,-0.2208,-0.2237,-0.225,-0.2266,-0.2278,-0.2257,-0.2253,-0.2219,-0.2202,-0.2233,-0.2141,-0.2187,-0.2068,-0.2063,-0.1936,-0.1922,-0.2105,-0.2105,-0.2105,-0.2105,-0.2105,0,-0.2041,-0.2038,-0.2094,-0.2091,-0.2093,-0.2142,-0.2145,-0.2172,-0.2206,-0.2206,-0.2244,-0.223,-0.2235,-0.22,-0.2178,-0.2076,-0.2114,-0.2017,-0.2018,-0.1915,-0.1901,-0.2187,-0.2198,-0.2102,-0.2103,-0.2104,-0.2104,0,-0.196,-0.1996,-0.2,-0.2047,-0.206,-0.2061,-0.2112,-0.2116,-0.2164,-0.2166,-0.2172,-0.2201,-0.2144,-0.2125,-0.207,-0.2031,-0.196,-0.1911,-0.1785,-0.1769,-0.1909,-0.1919,-0.1766,-0.1762,-0.1758,-0.1755,-0.1753,0,-0.1916,-0.1909,-0.1955,-0.1956,-0.1974,-0.1994,-0.2004,-0.2073,-0.2085,-0.2132,-0.2119,-0.2093,-0.2026,-0.1914,-0.183,-0.1728,-0.183,-0.1567,-0.1572,-0.1848,-0.1865,-0.188,-0.1894,-0.1396,-0.1391,-0.1387,-0.1384,0,-0.1826,-0.1847,-0.1852,-0.1862,-0.1872,-0.1891,-0.1916,-0.1925,-0.1995,-0.1996,-0.1969,-0.192,-0.1811,-0.1631,-0.152,-0.1459,-0.1575,-0.1474,-0.1771,-0.1504,-0.1493,-0.1513,-0.1539,-0.1345,-0.1349,-0.1352,-0.1354,-0.1356,-0.1749,-0.1736,-0.1746,-0.1744,-0.1762,-0.1762,-0.1723,-0.1761,-0.175,-0.1712,-0.1768,-0.1638,-0.159,-0.1315,-0.1221,-0.1159,-0.1273,-0.1243,-0.1259,-0.1279,-0.1249,-0.1231,-0.103,-0.1032,-0.1034,-0.1035,-0.1036,0,-0.1639,-0.1632,-0.1626,-0.1615,-0.1583,-0.1637,-0.1634,-0.1566,-0.1492,-0.149,-0.1427,-0.1233,-0.1089,-0.105,-0.0876,-0.0837,-0.086,-0.0819,-0.0863,-0.09,-0.0933,-0.0889,-0.0572,-0.0571,-0.057,-0.0569,0,0,-0.1576,-0.1526,-0.1524,-0.143,-0.1419,-0.132,-0.1284,-0.1209,-0.1168,-0.1058,-0.0989,-0.1028,-0.1016,-0.0804,-0.0741,-0.063,-0.0766,-0.0594,-0.0963,-0.1051,-0.1083,-0.1166,-0.1137,0,0,0,0,0]},{"header":{"parameterUnit":"m.s-1","parameterCategory":2,"la1":30.2991,"la2":30.254,"lo1":-89.0895,"lo2":-89.0444,"dy":0.0017,"dx":0.0017,"nx":28,"ny":28,"refTime":"2025-11-19T03:00:00:Z","depth":"2","parameterNumber":3,"parameterNumberName":"V-component_of_CURRENTS"},"data":[0,0,0,0,0,0,0,0,0,0,0,0,0,0,0,0,0,0,0,0,0,0,0,0,0,0,0,0,0,0,0,0,0,0,0,0,0,0,0,0,0,0,0,0,0,0,0,0,0,0,0,0,0,0,0,0,0,0,-0.0488,-0.0488,0,-0.0427,-0.0427,-0.0426,-0.0372,-0.0372,-0.0372,-0.0371,-0.0216,-0.0213,-0.0209,0,0,0,0,0,0,0,0,0,0,0,0,0,-0.0518,-0.0518,-0.0488,-0.0488,-0.0487,-0.0428,-0.0427,-0.0426,-0.0372,-0.0372,-0.0371,-0.0371,-0.0217,-0.0213,-0.0209,0,0,0,0,0,0,0,0,0,0,0,0,0,-0.0485,-0.0518,-0.0489,-0.0455,-0.0451,-0.0428,-0.0427,-0.0425,-0.0373,-0.0372,-0.0371,-0.0371,-0.0219,-0.0214,-0.0208,-0.0188,0,0,-0.0191,-0.0189,0,0,0,0,0,0,0,0,-0.0487,-0.0483,-0.046,-0.0457,-0.0453,-0.0408,-0.038,-0.0342,-0.0373,-0.0401,-0.0371,-0.037,-0.0273,-0.0263,-0.0252,-0.018,-0.0174,-0.0191,-0.0187,-0.0185,-0.0183,0,0,0,0,0,0,0,-0.0489,-0.0485,-0.0463,-0.046,-0.0455,-0.0429,-0.0423,-0.0373,-0.0339,-0.0398,-0.0395,-0.0391,-0.027,-0.0258,-0.0248,-0.0171,-0.0191,-0.0186,-0.0182,-0.018,-0.0029,-0.0028,0,0,0,0,0,0,-0.0503,-0.0488,-0.0465,-0.0461,-0.047,-0.0429,-0.0423,-0.0422,-0.0341,-0.0329,-0.0391,-0.0389,-0.0268,-0.0255,-0.0242,-0.019,-0.0185,-0.018,-0.0177,-0.003,-0.0029,-0.0028,0,0,0,0,0,0,-0.0504,-0.0502,-0.0467,-0.0474,-0.0468,-0.043,-0.0429,-0.0421,-0.0405,-0.0337,-0.0323,-0.0383,-0.0267,-0.025,-0.02,-0.0185,-0.0177,-0.0172,-0.003,-0.0029,-0.0028,-0.0101,0,0,0,0,0,0,-0.0505,-0.0502,-0.0509,-0.0475,-0.0468,-0.0455,-0.0429,-0.0421,-0.0405,-0.0401,-0.0326,-0.0311,-0.0265,-0.0209,-0.0194,-0.0177,-0.0168,-0.0031,-0.003,-0.0029,-0.0099,-0.0102,-0.0105,0,0,0,0,0,-0.0506,-0.0517,-0.051,-0.0507,-0.0478,-0.0456,-0.045,-0.0419,-0.0406,-0.0401,-0.0353,-0.0313,-0.0189,-0.0204,-0.0188,-0.0168,-0.0032,-0.003,-0.0029,-0.0098,-0.0102,-0.0105,0,0,0,0,0,0,-0.0534,-0.0511,-0.0503,-0.0507,-0.0486,-0.0447,-0.0444,-0.0423,-0.0384,-0.0378,-0.0312,-0.0294,-0.0244,-0.0196,-0.0214,-0.0118,-0.01,-0.0095,-0.0158,-0.0161,-0.0164,-0.0173,-0.0163,0,0,0,0,0,-0.0545,-0.0547,-0.0519,-0.0524,-0.0515,-0.0481,-0.047,-0.045,-0.0412,-0.0394,-0.0342,-0.028,-0.0225,-0.0188,-0.0136,-0.0087,-0.0044,-0.0059,-0.0062,-0.0065,-0.006,0.0004,0.0007,-0.0023,-0.0023,-0.0023,0,0,-0.0558,-0.0547,-0.0548,-0.053,-0.0511,-0.0499,-0.0472,-0.0459,-0.0442,-0.0382,-0.0342,-0.0294,-0.0216,-0.0165,-0.0136,-0.0122,-0.0035,-0.0063,-0.0067,-0.0059,0.0006,0.0009,0.0011,-0.0022,-0.0022,-0.0022,0,0,-0.0581,-0.0574,-0.058,-0.0565,-0.0544,-0.052,-0.0518,-0.0481,-0.0456,-0.0421,-0.0369,-0.0315,-0.0234,-0.0174,-0.0133,-0.0116,-0.006,-0.0095,-0.0107,-0.0046,-0.0044,-0.0041,0.0006,0.0013,-0.0088,-0.0088,-0.0088,0,-0.0599,-0.0601,-0.0579,-0.0577,-0.0568,-0.053,-0.0529,-0.0499,-0.0449,-0.0425,-0.0415,-0.0293,-0.0235,-0.0156,-0.0151,-0.0122,-0.0086,-0.0107,-0.0052,-0.0048,-0.0044,0.0003,0.0013,-0.0091,-0.0091,-0.0091,-0.009,0,-0.0622,-0.0622,-0.0624,-0.0608,-0.0594,-0.0589,-0.0547,-0.0525,-0.0495,-0.0458,-0.0391,-0.0319,-0.0241,-0.0213,-0.0177,-0.0109,-0.0094,-0.0075,-0.0052,-0.0046,0.0004,0.0015,-0.0096,-0.0095,-0.0094,-0.0093,0,0,-0.066,-0.0644,-0.0645,-0.0644,-0.0612,-0.0603,-0.0573,-0.0532,-0.0508,-0.0454,-0.0412,-0.0319,-0.0281,-0.0231,-0.0173,-0.0117,-0.0064,-0.0088,-0.0083,-0.0057,0.0061,0.0076,0.0089,-0.004,-0.0039,-0.0037,0.0079,0,-0.0684,-0.0697,-0.0674,-0.0676,-0.0676,-0.0634,-0.061,-0.0567,-0.0519,-0.047,-0.0385,-0.0328,-0.0285,-0.0254,-0.0189,-0.0095,-0.0036,-0.0097,0.0065,0.007,0.0071,0.0103,0.0077,0.0179,0.009,0.0092,0.0093,0,-0.071,-0.0715,-0.0729,-0.0712,-0.0707,-0.07,-0.0657,-0.0629,-0.0546,-0.0509,-0.0433,-0.037,-0.027,-0.0246,-0.0078,-0.0123,-0.0035,0.0034,0.0041,0.0091,0.0106,0.0164,0.0203,0.0112,0.011,0.0109,0.0108,0,-0.0753,-0.0749,-0.0764,-0.076,-0.0735,-0.0729,-0.071,-0.0644,-0.0616,-0.0532,-0.0505,-0.0381,-0.0317,-0.0196,-0.005,-0.0064,0.0127,0.013,0.023,0.0231,0.0262,0.0263,0.0252,0.0251,0.0251,0.0251,0.0251,0,-0.0786,-0.0795,-0.079,-0.08,-0.0814,-0.0776,-0.0768,-0.0729,-0.0664,-0.0622,-0.0531,-0.0466,-0.0302,-0.0173,-0.0052,0.0127,0.0134,0.0239,0.027,0.0235,0.0233,0.0219,0.0213,0.0255,0.0254,0.0253,0.0253,0,-0.0826,-0.0822,-0.0841,-0.0835,-0.0837,-0.0848,-0.0823,-0.0808,-0.0745,-0.0687,-0.0665,-0.0516,-0.0347,-0.0182,0.0031,0.013,0.029,0.0353,0.0292,0.0314,0.035,0.034,0.0471,0.0472,0.0474,0.0475,0.0476,0,-0.0844,-0.0862,-0.0883,-0.0902,-0.0903,-0.0911,-0.0913,-0.0858,-0.0834,-0.0707,-0.068,-0.051,-0.0367,-0.0065,0.0133,0.035,0.0353,0.0445,0.0422,0.036,0.0377,0.0364,0.0352,0.0432,0.0433,0.0433,0.0434,0,-0.0878,-0.0889,-0.091,-0.0958,-0.0977,-0.099,-0.0984,-0.0973,-0.0888,-0.0817,-0.0679,-0.0555,-0.0267,-0.0023,0.0242,0.0364,0.0402,0.0461,0.0442,0.0371,0.0331,0.0344,0.0333,0.0438,0.0437,0.0437,0.0437,0.0437,-0.0899,-0.093,-0.0965,-0.1006,-0.1035,-0.1051,-0.1045,-0.1012,-0.0952,-0.0816,-0.0691,-0.048,-0.0252,0.0129,0.0315,0.0475,0.0473,0.0514,0.051,0.0506,0.0471,0.0435,0.0555,0.0555,0.0555,0.0555,0.0555,0,-0.0919,-0.0956,-0.1005,-0.1051,-0.1085,-0.1088,-0.1074,-0.1031,-0.0947,-0.0805,-0.0648,-0.0369,-0.0104,0.0125,0.0382,0.0537,0.0518,0.0558,0.0503,0.0499,0.0495,0.0456,0.0538,0.0538,0.0538,0.0539,0,0,-0.0929,-0.0982,-0.1012,-0.1076,-0.1107,-0.1114,-0.1095,-0.1011,-0.09,-0.0727,-0.0569,-0.0373,-0.0089,0.009,0.0286,0.042,0.0415,0.0429,0.0428,0.0335,0.0329,0.0457,0.0392,0,0,0,0,0]}],[{"header":{"parameterUnit":"m.s-1","parameterCategory":2,"la1":30.2991,"la2":30.254,"lo1":-89.0895,"lo2":-89.0444,"dy":0.0017,"dx":0.0017,"nx":28,"ny":28,"refTime":"2025-11-19T03:00:00:Z","depth":"4","parameterNumber":2,"parameterNumberName":"U-component_of_CURRENTS"},"data":[0,0,0,0,0,0,0,0,0,0,0,0,0,0,0,0,0,0,0,0,0,0,0,0,0,0,0,0,0,0,0,0,0,0,0,0,0,0,0,0,0,0,0,0,0,0,0,0,0,0,0,0,0,0,0,0,0,0,-0.1515,-0.1516,0,-0.1551,-0.1552,-0.1552,-0.1581,-0.1582,-0.1582,-0.1582,-0.1632,-0.1633,-0.1634,0,0,0,0,0,0,0,0,0,0,0,0,0,-0.1488,-0.1489,-0.1515,-0.1516,-0.1516,-0.1551,-0.1552,-0.1552,-0.1581,-0.1582,-0.1582,-0.1582,-0.1632,-0.1633,-0.1634,0,0,0,0,0,0,0,0,0,0,0,0,0,-0.1509,-0.1489,-0.1515,-0.1536,-0.1538,-0.1551,-0.1552,-0.1552,-0.1581,-0.1582,-0.1582,-0.1583,-0.1632,-0.1633,-0.1635,-0.1632,0,0,-0.1639,-0.164,0,0,0,0,0,0,0,0,-0.1508,-0.151,-0.1532,-0.1534,-0.1537,-0.1563,-0.1561,-0.158,-0.1581,-0.1564,-0.1582,-0.1583,-0.1611,-0.1614,-0.1618,-0.1635,-0.1637,-0.1639,-0.164,-0.1641,-0.1641,0,0,0,0,0,0,0,-0.1506,-0.1509,-0.1529,-0.1533,-0.1536,-0.1549,-0.1552,-0.1564,-0.1583,-0.1565,-0.1568,-0.1573,-0.1612,-0.1616,-0.1619,-0.1638,-0.1639,-0.164,-0.1641,-0.1642,-0.1694,-0.1694,0,0,0,0,0,0,-0.1502,-0.1507,-0.1528,-0.153,-0.1524,-0.1549,-0.1553,-0.1553,-0.1583,-0.1588,-0.1572,-0.1574,-0.1614,-0.1618,-0.1621,-0.1672,-0.1641,-0.1642,-0.1643,-0.1693,-0.1694,-0.1694,0,0,0,0,0,0,-0.1501,-0.1503,-0.1526,-0.152,-0.1524,-0.1549,-0.1549,-0.1554,-0.1588,-0.1588,-0.1594,-0.1606,-0.1614,-0.1619,-0.1649,-0.1672,-0.1643,-0.1644,-0.1693,-0.1693,-0.1694,-0.174,0,0,0,0,0,0,-0.15,-0.1503,-0.1517,-0.152,-0.1524,-0.1553,-0.1549,-0.1554,-0.1589,-0.1592,-0.1618,-0.1621,-0.1615,-0.1647,-0.165,-0.1674,-0.1645,-0.1692,-0.1693,-0.1694,-0.1738,-0.1742,-0.1746,0,0,0,0,0,-0.1499,-0.1512,-0.1517,-0.1521,-0.1538,-0.1554,-0.1558,-0.1576,-0.159,-0.1609,-0.1622,-0.1622,-0.1655,-0.1648,-0.1653,-0.1677,-0.1692,-0.1693,-0.1694,-0.1736,-0.1741,-0.1746,0,0,0,0,0,0,-0.1512,-0.1516,-0.1522,-0.1538,-0.1554,-0.1559,-0.1582,-0.1595,-0.162,-0.1632,-0.1632,-0.1636,-0.1667,-0.1665,-0.1658,-0.1692,-0.1672,-0.1674,-0.1702,-0.1708,-0.1711,-0.1718,-0.1647,0,0,0,0,0,-0.1519,-0.153,-0.1537,-0.1554,-0.1564,-0.158,-0.1596,-0.1608,-0.1623,-0.1637,-0.1654,-0.1665,-0.1669,-0.1685,-0.1688,-0.1716,-0.1698,-0.1731,-0.1735,-0.1739,-0.1746,-0.1739,-0.1744,-0.1698,-0.1698,-0.1698,0,0,-0.153,-0.1534,-0.1543,-0.1558,-0.1573,-0.1593,-0.1592,-0.1623,-0.1647,-0.1638,-0.1685,-0.1684,-0.1678,-0.17,-0.1714,-0.1708,-0.1739,-0.174,-0.1743,-0.1748,-0.1741,-0.1746,-0.175,-0.1699,-0.1699,-0.1698,0,0,-0.1546,-0.1562,-0.1574,-0.1591,-0.1616,-0.1625,-0.1641,-0.1665,-0.1686,-0.172,-0.1713,-0.1728,-0.1751,-0.1745,-0.1743,-0.1774,-0.1757,-0.1779,-0.1814,-0.1808,-0.1812,-0.1815,-0.1784,-0.1785,-0.1786,-0.1786,-0.1786,0,-0.1562,-0.1571,-0.1584,-0.1602,-0.1619,-0.1643,-0.1665,-0.1689,-0.1722,-0.1737,-0.1744,-0.1766,-0.1768,-0.1779,-0.1788,-0.1785,-0.1771,-0.1798,-0.1814,-0.1817,-0.1819,-0.1787,-0.1787,-0.1788,-0.1788,-0.1788,-0.1788,0,-0.1575,-0.1599,-0.1612,-0.1637,-0.1663,-0.1687,-0.1715,-0.1749,-0.1778,-0.1793,-0.1824,-0.1822,-0.1832,-0.1835,-0.1825,-0.1844,-0.1822,-0.1816,-0.1803,-0.1827,-0.1791,-0.179,-0.1792,-0.1791,-0.179,-0.179,0,0,-0.1555,-0.1609,-0.1615,-0.1635,-0.1682,-0.1698,-0.1748,-0.1782,-0.1808,-0.1847,-0.1872,-0.1887,-0.189,-0.1887,-0.1878,-0.1882,-0.1883,-0.1866,-0.1864,-0.1838,-0.1855,-0.1717,-0.1701,-0.1884,-0.1884,-0.1885,-0.1817,0,-0.1559,-0.1594,-0.1625,-0.1669,-0.1687,-0.1732,-0.1771,-0.1811,-0.1844,-0.1877,-0.189,-0.1907,-0.1908,-0.1912,-0.1919,-0.189,-0.1884,-0.1901,-0.1834,-0.1831,-0.1708,-0.1697,-0.1886,-0.1816,-0.1816,-0.1815,-0.1815,0,-0.1542,-0.1571,-0.1614,-0.1673,-0.1687,-0.1725,-0.1781,-0.1819,-0.1871,-0.1895,-0.1926,-0.1934,-0.1949,-0.1943,-0.1922,-0.1935,-0.1903,-0.188,-0.1877,-0.1733,-0.1691,-0.179,-0.1813,-0.1813,-0.1813,-0.1813,-0.1813,0,-0.1487,-0.1555,-0.1589,-0.1611,-0.1686,-0.1721,-0.1765,-0.1824,-0.1852,-0.1907,-0.1923,-0.1949,-0.195,-0.1939,-0.1898,-0.1916,-0.1856,-0.1868,-0.171,-0.1699,-0.1827,-0.1824,-0.1847,-0.1847,-0.1847,-0.1848,-0.1848,0,-0.1447,-0.1477,-0.1572,-0.1587,-0.1632,-0.1698,-0.1744,-0.1791,-0.185,-0.1863,-0.1927,-0.1919,-0.1953,-0.1923,-0.1896,-0.178,-0.1849,-0.1704,-0.1671,-0.1844,-0.1845,-0.1824,-0.1823,-0.1845,-0.1846,-0.1846,-0.1846,0,-0.1371,-0.1435,-0.1479,-0.1574,-0.1605,-0.1638,-0.1729,-0.175,-0.1821,-0.1839,-0.1855,-0.1896,-0.1845,-0.1841,-0.1797,-0.1742,-0.1667,-0.1608,-0.177,-0.1749,-0.1519,-0.1521,-0.1433,-0.1427,-0.1423,-0.1419,-0.1415,0,-0.133,-0.1347,-0.1456,-0.1483,-0.153,-0.1594,-0.1626,-0.172,-0.1736,-0.1794,-0.1779,-0.1769,-0.1772,-0.1586,-0.1614,-0.153,-0.1515,-0.1476,-0.1525,-0.1499,-0.1477,-0.1486,-0.1493,-0.1408,-0.1407,-0.1406,-0.1404,0,-0.125,-0.1306,-0.1344,-0.1401,-0.1449,-0.1492,-0.1547,-0.1545,-0.1627,-0.1712,-0.1637,-0.1593,-0.1523,-0.1477,-0.1408,-0.1362,-0.1509,-0.1427,-0.1438,-0.1485,-0.1468,-0.1453,-0.1466,-0.1388,-0.1391,-0.1392,-0.1393,0,-0.1192,-0.1202,-0.1261,-0.1295,-0.1355,-0.1359,-0.1407,-0.1407,-0.1432,-0.1503,-0.1466,-0.1454,-0.1491,-0.1385,-0.1328,-0.1261,-0.1256,-0.1234,-0.1255,-0.1273,-0.1252,-0.1211,-0.1009,0,0,0,0,0,-0.1123,-0.1118,-0.1145,-0.1173,-0.1227,-0.1254,-0.1334,-0.1383,-0.1463,-0.1363,-0.1409,-0.1333,-0.1241,-0.1245,-0.1138,-0.1265,-0.1269,-0.114,-0.1259,-0.1299,-0.1318,-0.1309,0,0,0,0,0,0,-0.1074,-0.1097,-0.1103,-0.1059,-0.105,-0.1088,-0.113,-0.1188,-0.1144,-0.1228,-0.1174,-0.1244,-0.1167,-0.1254,-0.1101,-0.1102,-0.115,-0.1148,-0.1144,-0.1289,-0.1305,-0.132,-0.1318,0,0,0,0,0]},{"header":{"parameterUnit":"m.s-1","parameterCategory":2,"la1":30.2991,"la2":30.254,"lo1":-89.0895,"lo2":-89.0444,"dy":0.0017,"dx":0.0017,"nx":28,"ny":28,"refTime":"2025-11-19T03:00:00:Z","depth":"4","parameterNumber":3,"parameterNumberName":"V-component_of_CURRENTS"},"data":[0,0,0,0,0,0,0,0,0,0,0,0,0,0,0,0,0,0,0,0,0,0,0,0,0,0,0,0,0,0,0,0,0,0,0,0,0,0,0,0,0,0,0,0,0,0,0,0,0,0,0,0,0,0,0,0,0,0,-0.0403,-0.0403,0,-0.0393,-0.0393,-0.0393,-0.0378,-0.0378,-0.0377,-0.0377,-0.0348,-0.0348,-0.0347,0,0,0,0,0,0,0,0,0,0,0,0,0,-0.0392,-0.0393,-0.0403,-0.0403,-0.0403,-0.0393,-0.0393,-0.0393,-0.0378,-0.0378,-0.0377,-0.0377,-0.0348,-0.0348,-0.0347,0,0,0,0,0,0,0,0,0,0,0,0,0,-0.0391,-0.0393,-0.0403,-0.0394,-0.0393,-0.0393,-0.0393,-0.0393,-0.0378,-0.0378,-0.0377,-0.0377,-0.0349,-0.0348,-0.0347,-0.035,0,0,-0.0345,-0.0344,0,0,0,0,0,0,0,0,-0.0391,-0.0392,-0.0395,-0.0395,-0.0394,-0.0386,-0.0379,-0.0378,-0.0378,-0.0384,-0.0377,-0.0377,-0.0359,-0.0358,-0.0357,-0.0349,-0.0347,-0.0344,-0.0344,-0.0344,-0.0343,0,0,0,0,0,0,0,-0.0392,-0.0392,-0.0399,-0.0395,-0.0394,-0.0385,-0.0385,-0.0378,-0.0374,-0.0383,-0.0382,-0.0381,-0.0359,-0.0358,-0.0356,-0.0347,-0.0344,-0.0344,-0.0343,-0.0343,-0.032,-0.0319,0,0,0,0,0,0,-0.0394,-0.0392,-0.0399,-0.0399,-0.0392,-0.0386,-0.0385,-0.0389,-0.0374,-0.0372,-0.0382,-0.0381,-0.0359,-0.0357,-0.0355,-0.0337,-0.0344,-0.0343,-0.0342,-0.032,-0.032,-0.0319,0,0,0,0,0,0,-0.0394,-0.0395,-0.04,-0.0395,-0.0395,-0.0386,-0.0391,-0.0389,-0.0392,-0.0373,-0.037,-0.0386,-0.0359,-0.0356,-0.0355,-0.0336,-0.0343,-0.0342,-0.032,-0.032,-0.0319,-0.0313,0,0,0,0,0,0,-0.0394,-0.0395,-0.0405,-0.0395,-0.0395,-0.0401,-0.0391,-0.0389,-0.0391,-0.039,-0.0376,-0.0373,-0.0358,-0.0357,-0.0354,-0.0335,-0.0341,-0.032,-0.032,-0.032,-0.0314,-0.0313,-0.0312,0,0,0,0,0,-0.0394,-0.0406,-0.0406,-0.0407,-0.0407,-0.0401,-0.04,-0.0393,-0.0392,-0.0394,-0.0388,-0.0373,-0.0352,-0.0356,-0.0354,-0.0334,-0.032,-0.032,-0.032,-0.0314,-0.0313,-0.0312,0,0,0,0,0,0,-0.0408,-0.0405,-0.0405,-0.0416,-0.041,-0.0398,-0.0403,-0.0398,-0.0396,-0.0399,-0.0381,-0.0377,-0.0365,-0.0358,-0.0363,-0.0327,-0.033,-0.0329,-0.0327,-0.0326,-0.0325,-0.0314,-0.0341,0,0,0,0,0,-0.0416,-0.0425,-0.0416,-0.0427,-0.0425,-0.0417,-0.0417,-0.0412,-0.0405,-0.0404,-0.0391,-0.0378,-0.0362,-0.0353,-0.0341,-0.033,-0.0302,-0.0313,-0.0312,-0.0311,-0.0301,-0.0238,-0.023,-0.0318,-0.0318,-0.0318,0,0,-0.0426,-0.0426,-0.0432,-0.0431,-0.0428,-0.0424,-0.0416,-0.0418,-0.0411,-0.0402,-0.0393,-0.0381,-0.0361,-0.0342,-0.0335,-0.0333,-0.0276,-0.0311,-0.0311,-0.0301,-0.0237,-0.0228,-0.022,-0.0318,-0.0318,-0.0318,0,0,-0.0443,-0.0449,-0.0458,-0.0454,-0.0451,-0.0441,-0.0443,-0.0432,-0.0423,-0.042,-0.0401,-0.0375,-0.0368,-0.0329,-0.0314,-0.0304,-0.0278,-0.0308,-0.0289,-0.0227,-0.0219,-0.0211,-0.0181,-0.017,-0.0302,-0.0302,-0.0302,0,-0.0456,-0.0465,-0.0459,-0.0462,-0.0461,-0.0448,-0.045,-0.0437,-0.0427,-0.0413,-0.042,-0.0371,-0.0352,-0.0301,-0.0296,-0.0297,-0.0276,-0.0293,-0.0224,-0.0216,-0.0208,-0.0178,-0.0167,-0.0302,-0.0302,-0.0302,-0.0302,0,-0.0473,-0.0481,-0.0485,-0.0483,-0.0478,-0.0481,-0.046,-0.0451,-0.0443,-0.0422,-0.0384,-0.0353,-0.0318,-0.0304,-0.0298,-0.023,-0.024,-0.0233,-0.0223,-0.0198,-0.017,-0.0158,-0.0301,-0.0301,-0.0302,-0.0302,0,0,-0.0497,-0.0498,-0.05,-0.0504,-0.0491,-0.049,-0.0472,-0.0446,-0.0432,-0.0402,-0.0371,-0.0319,-0.0296,-0.0276,-0.0249,-0.0191,-0.0121,-0.0193,-0.019,-0.0157,-0.0009,-0.0043,-0.0034,-0.0105,-0.0102,-0.01,-0.0018,0,-0.0512,-0.0528,-0.0518,-0.0526,-0.0529,-0.0507,-0.0492,-0.0465,-0.0439,-0.0406,-0.0342,-0.0313,-0.0286,-0.0274,-0.0204,-0.0151,-0.0087,-0.0146,-0.0043,-0.004,-0.0067,-0.0019,-0.0093,-0.0009,-0.0006,-0.0004,-0.0002,0,-0.0527,-0.0537,-0.0553,-0.0549,-0.0548,-0.0549,-0.0523,-0.0507,-0.0445,-0.0424,-0.0362,-0.0325,-0.0236,-0.0225,-0.0083,-0.0127,-0.0063,-0.0013,-0.0009,-0.003,-0.005,-0.0035,0.002,0.0018,0.0016,0.0015,0.0013,0,-0.055,-0.0557,-0.0575,-0.0576,-0.0568,-0.0569,-0.0561,-0.0516,-0.05,-0.0436,-0.042,-0.0311,-0.0269,-0.016,-0.0062,-0.0071,0.0085,0.0085,0.0124,0.0121,0.0123,0.0114,0.0207,0.0207,0.0207,0.0207,0.0206,0,-0.0564,-0.0578,-0.0594,-0.0605,-0.0624,-0.0604,-0.0607,-0.058,-0.0536,-0.0509,-0.0435,-0.0389,-0.025,-0.0152,-0.0056,0.0064,0.0096,0.0143,0.0154,0.0118,0.0108,0.013,0.012,0.021,0.0209,0.0208,0.0208,0,-0.058,-0.059,-0.0616,-0.0629,-0.0639,-0.0654,-0.0655,-0.0647,-0.0606,-0.0569,-0.0553,-0.0438,-0.0312,-0.0181,-0.0008,0.0058,0.0179,0.0217,0.0154,0.0156,0.0172,0.0161,0.0274,0.0273,0.0273,0.0273,0.0273,0,-0.0585,-0.0603,-0.0648,-0.0674,-0.0687,-0.0709,-0.0721,-0.069,-0.0676,-0.0593,-0.0573,-0.0453,-0.0366,-0.0145,-0.0013,0.0168,0.0193,0.0242,0.0235,0.0186,0.0186,0.0175,0.0165,0.0273,0.0273,0.0273,0.0273,0,-0.0594,-0.0622,-0.0648,-0.0709,-0.0742,-0.0766,-0.0778,-0.077,-0.0717,-0.0686,-0.0571,-0.045,-0.031,-0.0141,-0.0009,0.0123,0.0202,0.0241,0.0243,0.0237,0.0187,0.0184,0.0174,0.0272,0.0272,0.0272,0.0272,0,-0.0605,-0.0634,-0.0683,-0.0729,-0.0781,-0.0805,-0.0806,-0.0772,-0.0745,-0.0647,-0.0606,-0.0446,-0.0343,-0.0163,-0.0037,0.0079,0.0112,0.0143,0.015,0.0152,0.0086,0.0003,0.0058,0,0,0,0,0,-0.0606,-0.0642,-0.0694,-0.0746,-0.08,-0.0822,-0.0833,-0.082,-0.0773,-0.0694,-0.0643,-0.0506,-0.0298,-0.0203,-0.0089,-0.0056,0.0112,0.0077,0.0145,0.0269,0.0269,0.0209,0,0,0,0,0,0,-0.0608,-0.0662,-0.0691,-0.0751,-0.0787,-0.0833,-0.0839,-0.0807,-0.0752,-0.0688,-0.0572,-0.0494,-0.0293,-0.0359,-0.0089,-0.0054,-0.0001,0.0181,0.0182,0.0268,0.0269,0.027,0.0208,0,0,0,0,0]}]]